Location: Alto Pass Reservoir
(37.5801°N, 89.3084°W)
Time: 06:28:45
(UTC+00:00)

Cosmos 2298 Rocket - Pass Details

Date: 07 July 2022
Orbit: 775 x 784 km, 74.0° (Epoch: 15 August)

Event Time Altitude Azimuth Distance (km) Brightness Sun altitude
Rises 09:02:27 0° 337° (NNW) 3,279 7.6 -16.4°
Reaches altitude 10° 09:04:52 10° 334° (NNW) 2,346 6.8 -16.1°
Maximum altitude 09:10:07 61° 256° (WSW) 888 4.0 -15.4°
Drops below altitude 10° 09:15:20 10° 177° (S) 2,328 6.1 -14.7°
Enters shadow 09:15:47 - 176° (S) 2,505 6.3 -14.6°
